SKYNET 4C

Last updated on Fri Sep 27 2024 00:02:36 GMT+0000 (Coordinated Universal Time)

1 20776U 90079A 24269.87271619 .00000116 00000+0 00000+0 0 9997 2 20776 13.5435 354.0960 0003591 212.5792 146.0821 1.00277265124636
UTC large
Height (km)
Speed (km/s)
/
Latitude / Longitude
Inclination (degrees)
Orbital Period (minutes)
Azimuth
Elevation
Range (km)
Doppler Factor

Next 0 passes for location: London (51.5072 / 0.1276)

Sorry there are no passes over London.